Location: Oklahoma City
(35.4680°N, 97.5160°W)
Time: 16:13:28
(UTC-06:00)

ISS - Visible Passes

Search period start: 02 December 2016 00:00
Search period end: 12 December 2016 00:00
Orbit: 401 x 410 km, 51.6° (Epoch: 03 December)

Date Brightness Start Highest point End Pass type
(mag) Time Alt. Az. Time Alt. Az. Time Alt. Az.
02 Dec -0.8 19:09:32 10° WNW 19:11:28 14° NNW 19:11:30 14° NNW visible
03 Dec -1.4 18:16:41 10° W 18:19:22 23° NNW 18:21:48 11° NNE visible
05 Dec -0.7 18:10:52 10° NW 18:12:20 12° NNW 18:13:47 10° N visible
